Weather in Bergamo

Italy     45°41′46″N   9°40′05″E
temp.,
°C
wind,
m/s
gust,
m/s
humid.,
%
clouds,
%
prec.,
mm/h
press.,
hPa
HPBL,
m
17 august, wed
wed1723:00+20nne33670 0.0 101349
02:00+18nne327940 0.4 101436
05:00+17nne32885 0.6 101339
08:00+19nne128369 0.8 101448
11:00+25ssw2256100 0.3 1014980
14:00+28sw1145100 0.6 10131402
17:00+25wsw1159100 0.1 101335
20:00+19nne249481 2.9 101298
18 august, thu
thu1823:00+18nne228738 0.1 101438
02:00+16n32825 0.1 101335
05:00+16w229098 0.6 101426
08:00+17nnw2293100 2.9 101350
11:00+18n2294100 1.6 101347
14:00+17nne4795100 20.6 1013223
17:00+22n3476100 1.3 1012441
20:00+18e1187100 1.7 101012
19 august, fri
fri1923:00+16ne1192100 2.1 101120
02:00+17nnw2298100 3.7 101167
05:00+16nnw1196100 2.4 100915
08:00+16se1299100 10.4 1011108
11:00+18ssw2293100 3.8 1012435
14:00+21ssw2270100 4.5 1011887
17:00+23ssw2263100 0.3 1010880
20:00+18nw118726 0.3 101112
20 august, sat
sat2023:00+16nne32695 0.0 101242
02:00+16nne34653 0.0 101256
05:00+16nne33660 0.0 101244
08:00+17nne34650 0.0 101377
11:00+25ssw214267 0.0 1013828
14:00+26ssw32435 0.0 10131002
17:00+26s21452 0.0 1012969
20:00+20n1172100 0.2 101211
21 august, sun
sun2123:00+18nne34741 0.1 101352
02:00+17nne34710 0.1 101463
05:00+16nne34655 0.0 101358
08:00+18nne236430 0.0 101363
11:00+24s214669 0.0 1012665
14:00+26ssw214711 0.0 10111174
17:00+26ssw214994 0.0 10091224
20:00+20n1180100 1.2 100911